Omak, WA

1:24 AM PDT on May 25, 2017 (GMT -0700)
Omak

Weather History for KOMK - October, 2013

Change the Weather History Date:

Sunday, October 13, 2013

  Actual Average Record
Temperature  
Mean Temperature 48 °F 50 °F  
Max Temperature 61 °F 64 °F 76 °F (1945)
Min Temperature 35 °F 37 °F 20 °F (1969)
Degree Days  
Heating Degree Days 17 15  
Month to date heating degree days 212 155  
Since 1 July heating degree days 345 316  
Cooling Degree Days 0 0  
Month to date cooling degree days 0 0  
Year to date cooling degree days 814 664  
Moisture  
Dew Point 30 °F    
Average Humidity 51    
Maximum Humidity 75    
Minimum Humidity 27    
Precipitation  
Precipitation 0.00 in 0.03 in 1.08 in (2016)
Month to date precipitation 0.05 0.36  
Year to date precipitation 8.88 10.22  
Sea Level Pressure  
Sea Level Pressure 30.28 in    
Wind  
Wind Speed 9 mph (NNW)    
Max Wind Speed 17 mph    
Max Gust Speed 22 mph    
Visibility 10 miles    
Events      
T = Trace of Precipitation, MM = Missing Value Source: NWS Daily Summary

Daily Weather History Graph

Daily Weather History Graph

Search for Another Location

Airport or City:

Trip Planner

Search our weather history database for the weather conditions in past years. The results will help you decide how hot, cold, wet, or windy it might be!

Date:

Astronomy

Oct. 13, 2013 Rise Set
Actual Time 7:15 AM PDT 6:12 PM PDT
Civil Twilight 6:43 AM PDT 6:43 PM PDT
Nautical Twilight 6:07 AM PDT 7:19 PM PDT
Astronomical Twilight 5:31 AM PDT 7:56 PM PDT
Moon 3:29 PM PDT (10/13) 1:05 AM PDT (10/13)
Length of Visible Light 11h 59m
Length of Day
10h 56m
Waxing Gibbous, 70% of the Moon is Illuminated
Oct 13
Waxing Gibbous
Oct 18
Full
Oct 26
Last Quarter
Nov 3
New
Nov 9
First Quarter

Hourly Weather History & Observations

Time (PDT) Temp. Windchill Dew Point Humidity Pressure Visibility Wind Dir Wind Speed Gust Speed Precip Events Conditions
12:53 AM 44.1 °F 37.7 °F 32.0 °F 63% 30.21 in 10.0 mi WNW 12.7 mph - N/A   Clear
1:53 AM 43.0 °F 37.2 °F 30.9 °F 62% 30.23 in 10.0 mi WNW 10.4 mph - N/A   Mostly Cloudy
2:53 AM 41.0 °F 35.2 °F 33.1 °F 73% 30.24 in 10.0 mi NNW 9.2 mph - N/A   Overcast
3:53 AM 42.1 °F 36.1 °F 30.9 °F 65% 30.24 in 10.0 mi WNW 10.4 mph - N/A   Partly Cloudy
4:53 AM 41.0 °F 35.2 °F 30.0 °F 65% 30.25 in 10.0 mi WNW 9.2 mph - N/A   Clear
5:53 AM 39.0 °F 32.8 °F 30.0 °F 70% 30.27 in 10.0 mi WNW 9.2 mph - N/A   Clear
6:53 AM 36.0 °F 32.1 °F 28.9 °F 76% 30.27 in 10.0 mi North 4.6 mph - N/A   Clear
7:53 AM 39.9 °F 34.5 °F 30.9 °F 70% 30.29 in 10.0 mi NW 8.1 mph - N/A   Clear
8:53 AM 45.0 °F 41.8 °F 33.1 °F 63% 30.30 in 10.0 mi North 5.8 mph - N/A   Clear
9:53 AM 50.0 °F - 34.0 °F 54% 30.30 in 10.0 mi NNW 5.8 mph - N/A   Clear
10:53 AM 54.0 °F - 32.0 °F 43% 30.29 in 10.0 mi North 11.5 mph 18.4 mph N/A   Clear
11:53 AM 57.0 °F - 30.0 °F 36% 30.27 in 10.0 mi NNE 17.3 mph 21.9 mph N/A   Clear
12:53 PM 59.0 °F - 30.0 °F 33% 30.26 in 10.0 mi NNE 10.4 mph - N/A   Clear
1:53 PM 61.0 °F - 28.0 °F 29% 30.24 in 10.0 mi North 13.8 mph 20.7 mph N/A   Clear
2:53 PM 61.0 °F - 27.0 °F 27% 30.24 in 10.0 mi North 13.8 mph - N/A   Clear
3:53 PM 61.0 °F - 27.0 °F 27% 30.23 in 10.0 mi North 15.0 mph - N/A   Clear
4:53 PM 59.0 °F - 27.0 °F 29% 30.24 in 10.0 mi North 12.7 mph - N/A   Clear
5:53 PM 54.0 °F - 28.0 °F 37% 30.26 in 10.0 mi NNW 8.1 mph - N/A   Clear
6:53 PM 51.1 °F - 28.0 °F 41% 30.29 in 10.0 mi NNW 9.2 mph - N/A   Clear
7:53 PM 48.0 °F - 28.0 °F 46% 30.31 in 10.0 mi NW 9.2 mph - N/A   Clear
8:53 PM 46.0 °F 41.4 °F 28.9 °F 51% 30.32 in 10.0 mi WNW 9.2 mph - N/A   Clear
9:53 PM 43.0 °F 39.5 °F 28.9 °F 58% 30.34 in 10.0 mi WNW 5.8 mph - N/A   Clear
10:53 PM 39.9 °F 35.8 °F 28.0 °F 63% 30.35 in 10.0 mi WNW 5.8 mph - N/A   Clear
11:53 PM 41.0 °F 37.1 °F 28.9 °F 62% 30.36 in 10.0 mi WNW 5.8 mph - N/A   Clear